Rygge, Norway

8:24 AM CEST on August 21, 2017 (GMT +0200)
Rygge Air Base

Weather History for ENRY - March, 2013

Change the Weather History Date:

Monday, March 11, 2013

  Actual Average Record
Temperature  
Mean Temperature 20 °F -  
Max Temperature 34 °F 41 °F 53 °F (1997)
Min Temperature 5 °F 29 °F - (2014)
Degree Days  
Heating Degree Days 46    
Moisture  
Dew Point 6 °F    
Average Humidity 55    
Maximum Humidity 79    
Minimum Humidity 24    
Precipitation  
Precipitation 0.00 in - - ()
Sea Level Pressure  
Sea Level Pressure 30.01 in    
Wind  
Wind Speed 3 mph ()    
Max Wind Speed 9 mph    
Max Gust Speed -    
Visibility 7.1 miles    
Events      
Averages and records for this station are not official NWS values.
T = Trace of Precipitation, MM = Missing Value Source: Averaged Metar Reports

Daily Weather History Graph

Daily Weather History Graph

Search for Another Location

Airport or City:

Trip Planner

Search our weather history database for the weather conditions in past years. The results will help you decide how hot, cold, wet, or windy it might be!

Date:

Astronomy

Mar. 11, 2013 Rise Set
Actual Time 6:44 AM CET 6:09 PM CET
Civil Twilight 6:04 AM CET 6:50 PM CET
Nautical Twilight 5:16 AM CET 7:38 PM CET
Astronomical Twilight 4:27 AM CET 8:28 PM CET
Moon 6:07 AM CET (3/11) 6:13 PM CET (3/11)
Length of Visible Light 12h 46m
Length of Day
11h 24m
Waning Crescent, 0% of the Moon is Illuminated
Mar 11
Waning Crescent
Mar 11
New
Mar 19
First Quarter
Mar 27
Full
Apr 3
Last Quarter

Hourly Weather History & Observations

Time (CET) Temp. Windchill Dew Point Humidity Pressure Visibility Wind Dir Wind Speed Gust Speed Precip Events Conditions
12:20 AM 10.4 °F - 1.4 °F 67% 30.15 in 6.2 mi NE 2.3 mph - N/A   Unknown
12:50 AM 8.6 °F - -0.4 °F 67% 30.15 in 6.2 mi Calm Calm - N/A   Unknown
1:00 AM 9 °F - 2 °F 60% 30.18 in 31 mi Calm Calm - -   Clear
1:20 AM 8.6 °F 2.0 °F -0.4 °F 67% 30.15 in 6.2 mi NNW 3.5 mph - N/A   Unknown
1:50 AM 6.8 °F - -0.4 °F 72% 30.12 in 6.2 mi North 2.3 mph - N/A   Unknown
2:20 AM 6.8 °F -2.0 °F -0.4 °F 72% 30.12 in 6.2 mi NNW 4.6 mph - N/A   Unknown
2:50 AM 6.8 °F -0.1 °F -0.4 °F 72% 30.12 in 6.2 mi North 3.5 mph - N/A   Unknown
3:20 AM 6.8 °F -0.1 °F -0.4 °F 72% 30.12 in 6.2 mi NNE 3.5 mph - N/A   Unknown
3:50 AM 5.0 °F - -0.4 °F 78% 30.12 in 6.2 mi North 2.3 mph - N/A   Unknown
4:20 AM 6.8 °F -0.1 °F 1.4 °F 79% 30.09 in 6.2 mi NNE 3.5 mph - N/A   Unknown
4:50 AM 6.8 °F - -0.4 °F 72% 30.09 in 6.2 mi Calm Calm - N/A   Unknown
5:20 AM 6.8 °F - -0.4 °F 72% 30.09 in 6.2 mi Variable 2.3 mph - N/A   Unknown
5:50 AM 6.8 °F - -0.4 °F 72% 30.09 in 6.2 mi North 2.3 mph - N/A   Unknown
6:20 AM 6.8 °F - -0.4 °F 72% 30.09 in - Variable 2.3 mph - N/A   Clear
6:50 AM 6.8 °F - -0.4 °F 72% 30.09 in - North 2.3 mph - N/A   Clear
7:00 AM 6 °F - -0 °F 65% 30.11 in 31 mi North 2.2 mph - -   Clear
7:20 AM 6.8 °F -0.1 °F -0.4 °F 72% 30.09 in - North 3.5 mph - N/A   Clear
7:50 AM 8.6 °F - -0.4 °F 67% 30.06 in - Variable 1.2 mph - N/A   Clear
8:20 AM 10.4 °F - 1.4 °F 67% 30.06 in - NNE 2.3 mph - N/A   Clear
8:50 AM 14.0 °F - 3.2 °F 62% 30.06 in - Calm Calm - N/A   Clear
9:20 AM 17.6 °F - 5.0 °F 58% 30.06 in - Variable 2.3 mph - N/A   Clear
9:50 AM 19.4 °F 14.3 °F 3.2 °F 49% 30.06 in - NNW 3.5 mph - N/A   Clear
10:20 AM 21.2 °F 16.4 °F 5.0 °F 50% 30.06 in - NNW 3.5 mph - N/A   Clear
10:50 AM 23.0 °F 17.0 °F 5.0 °F 46% 30.06 in - NW 4.6 mph - N/A   Clear
11:20 AM 24.8 °F 19.1 °F 5.0 °F 43% 30.04 in - NW 4.6 mph - N/A   Clear
11:50 AM 28.4 °F 23.3 °F 5.0 °F 37% 30.04 in - NW 4.6 mph - N/A   Clear
12:20 PM 28.4 °F 22.2 °F 5.0 °F 37% 30.04 in - North 5.8 mph - N/A   Clear
12:50 PM 30.2 °F 24.3 °F 5.0 °F 34% 30.01 in - North 5.8 mph - N/A   Clear
1:00 PM 31 °F - 8 °F 24% 30.03 in 19 mi NNW 8.9 mph - -   Clear
1:20 PM 32.0 °F 24.8 °F 6.8 °F 35% 30.01 in - North 8.1 mph - N/A   Clear
1:50 PM 32.0 °F 24.8 °F 6.8 °F 35% 30.01 in - NW 8.1 mph - N/A   Clear
2:20 PM 32.0 °F 24.8 °F 10.4 °F 41% 29.98 in - WNW 8.1 mph - N/A   Clear
2:50 PM 32.0 °F 24.2 °F 14.0 °F 48% 29.98 in - West 9.2 mph - N/A   Clear
3:20 PM 32.0 °F 24.8 °F 12.2 °F 44% 29.95 in - WNW 8.1 mph - N/A   Clear
3:50 PM 33.8 °F 26.4 °F 10.4 °F 38% 29.95 in - NW 9.2 mph - N/A   Clear
4:20 PM 33.8 °F 27.0 °F 10.4 °F 38% 29.95 in - WNW 8.1 mph - N/A   Clear
4:50 PM 33.8 °F 27.7 °F 10.4 °F 38% 29.95 in - NNW 6.9 mph - N/A   Clear
5:20 PM 33.8 °F 28.6 °F 10.4 °F 38% 29.92 in - NW 5.8 mph - N/A   Clear
5:50 PM 32.0 °F 26.4 °F 10.4 °F 41% 29.92 in - NW 5.8 mph - N/A   Clear
6:20 PM 32.0 °F 27.5 °F 12.2 °F 44% 29.92 in - West 4.6 mph - N/A   Clear
6:50 PM 30.2 °F 24.3 °F 10.4 °F 44% 29.92 in - WNW 5.8 mph - N/A   Clear
7:00 PM 30 °F - 15 °F 39% 29.93 in 34 mi WNW 6.7 mph - -   Partly Cloudy
7:20 PM 30.2 °F 23.4 °F 14.0 °F 51% 29.92 in - WNW 6.9 mph - N/A   Clear
7:50 PM 30.2 °F 25.4 °F 14.0 °F 51% 29.89 in - WNW 4.6 mph - N/A   Clear
8:20 PM 28.4 °F 23.3 °F 12.2 °F 51% 29.89 in - WNW 4.6 mph - N/A   Clear
8:50 PM 28.4 °F 22.2 °F 12.2 °F 51% 29.89 in - WNW 5.8 mph - N/A   Clear
9:20 PM 28.4 °F 22.2 °F 12.2 °F 51% 29.89 in - WNW 5.8 mph - N/A   Clear
9:50 PM 28.4 °F 22.2 °F 12.2 °F 51% 29.86 in - West 5.8 mph - N/A   Clear
10:20 PM 26.6 °F 20.0 °F 14.0 °F 59% 29.86 in - West 5.8 mph - N/A   Clear
10:50 PM 26.6 °F 19.1 °F 12.2 °F 55% 29.86 in - WNW 6.9 mph - N/A   Clear
11:20 PM 23.0 °F - 12.2 °F 63% 29.86 in 6.2 mi Calm Calm - N/A   Unknown
11:50 PM 21.2 °F - 12.2 °F 68% 29.83 in 6.2 mi ESE 1.2 mph - N/A   Unknown